Tracking 35280 objects as of 7-Sep-2026
HD Live streaming from Space Station
objects crossing your sky now

ONEWEB-0319

Track ONEWEB-0319 now!
10-day predictions
ONEWEB-0319 is classified as:


NORAD ID: 49105
Int'l Code: 2021-075AG
Launch date: August 21, 2021
Source: United Kingdom (UK)
Launch site: TYURATAM MISSILE AND SPACE COMPLEX (TTMTR)
Your satellite tracking list
Your tracking list is empty




NASA's NSSDC Master Catalog

Two Line Element Set (TLE):
1 49105U 21075AG  26249.72885532  .00000008  00000-0 -13158-4 0  9998
2 49105  87.9199 349.6707 0002067 114.1914 245.9434 13.17650553244340
Source of the keplerian elements: AFSPC